Home   Weather   Port Elizabeth   Past weeks

Flag for South Africa Past Weather in Port Elizabeth, South Africa — Yesterday and Last 2 Weeks

Now
72 °F

Passing clouds.


Feels Like: 76 °F
Forecast: 59 / 74 °F
Wind: 28 mph from Southwest

Location: Port Elizabeth Airport

Current Time: Jan 20, 2017 at 4:31:10 pm

Latest Report: Jan 20, 2017 at 3:19 pm


Visibility: N/A

Pressure: 29.95 "Hg

Humidity: 57%

Dew Point: 55 °F

Location of Port ElizabethLocation

Past Weather in Port Elizabeth — Graph

°F

Port Elizabeth Temperature Yesterday

Maximum temperature yesterday: 79 °F (at 12:00 pm)
Minimum temperature yesterday: 64 °F (at 11:00 pm)
Average temperature yesterday: 71 °F

High & Low Weather Summary for the Past Weeks

 TemperatureHumidityPressure
High86 °F (Jan 11, 2:00 pm)100% (Jan 14, 2:00 am)30.27 "Hg (Jan 14, 2:00 am)
Low57 °F (Jan 8, 2:00 am)44% (Jan 17, 1:31 pm)29.62 "Hg (Jan 5, 3:00 pm)
Average71 °F72%29.95 "Hg
* Reported Jan 5 3:00 pm — Jan 20 3:19 pm, Port Elizabeth, Weather by CustomWeather, © 2017

Note: Actual official high and low records may vary slightly from our data, if they occured in-between our weather recording intervals... More about our weather records

Advertising

Port Elizabeth Weather History for the Previous 24 Hours

Scroll right to see more
 ConditionsComfort  
Time TempWeatherWind HumidityBarometerVisibility
3:19 pm
Fri, Jan 20
72 °FPassing clouds.28 mph57%29.95 "HgN/A
3:00 pm73 °FPassing clouds.25 mph53%29.95 "HgN/A
2:00 pm75 °FPassing clouds.25 mph50%29.92 "HgN/A
1:23 pm75 °FPassing clouds.25 mph47%29.95 "HgN/A
12:00 pm75 °FPassing clouds.24 mph50%29.95 "HgN/A
11:00 am75 °FPassing clouds.23 mph47%29.95 "HgN/A
10:00 am73 °FPassing clouds.23 mph53%29.92 "HgN/A
9:00 am72 °FSunny.23 mph53%29.92 "Hg10 mi
8:00 am68 °FSunny.20 mph56%29.92 "Hg10 mi
7:31 am66 °FSunny.17 mph64%29.92 "Hg10 mi
7:00 am63 °FSunny.21 mph73%29.92 "Hg10 mi
6:00 am63 °FSunny.15 mph77%29.89 "Hg10 mi
5:00 am63 °FPassing clouds.16 mph83%29.89 "HgN/A
4:00 am61 °FPassing clouds.13 mph94%29.89 "HgN/A
3:00 am63 °FClear.16 mph88%29.89 "Hg10 mi
11:00 pm
Thu, Jan 19
64 °FClear.16 mph83%29.95 "Hg10 mi
10:00 pm66 °FPassing clouds.15 mph78%29.95 "HgN/A
9:00 pm66 °FPassing clouds.20 mph78%29.95 "HgN/A
8:00 pm66 °FPassing clouds.20 mph78%29.92 "HgN/A
7:00 pm68 °FPassing clouds.23 mph73%29.89 "HgN/A
6:00 pm72 °FPassing clouds.23 mph65%29.86 "HgN/A
5:00 pm73 °FPassing clouds.24 mph61%29.86 "HgN/A
4:00 pm73 °FPartly sunny.25 mph65%29.89 "HgN/A
Weather by CustomWeather, © 2017

See weather overviewHow to use our weather pages